Location: Auckland
(36.8670°S, 174.7670°E)
Time: 18:25:46
(UTC+12:00)

NOSS 2-1 (E) - Pass Details

Date: 02 May 2019
Orbit: 471 x 1733 km, 63.3° (Epoch: 14 May)

Event Time Altitude Azimuth Distance (km) Brightness Sun altitude
Rises 17:56:21 0° 238° (WSW) 4,990 8.9 -4.9°
Reaches altitude 10° 18:03:17 10° 207° (SSW) 3,820 7.8 -6.2°
Maximum altitude 18:05:59 11° 191° (S) 3,609 7.4 -6.8°
Drops below altitude 10° 18:08:35 10° 174° (S) 3,594 7.3 -7.3°
Enters shadow 18:14:25 - 141° (SE) 4,236 7.3 -8.4°
